User: anonymous
Location: NJAA Observatory
(40.6819°N, 74.8979°W)
Time: 08:51:23
(UTC-04:00)
Language:

ALOS - Orbit

View from above orbital plane
View from above orbital plane
View from above satellite
View from above satellite

Ground track
Ground track

The orbit data is extracted from the following two-line orbital elements,

1 28931U 06002A   14238.16584414  .00000308  00000-0  71411-4 0   251
2 28931 097.9767 293.7710 0000528 074.5100 002.5700 14.61250302457544
Epoch (UTC): 26 August 2014 03:58:48
Eccentricity: 0.0000528
inclination: 97.9767°
perigee height: 689 km
apogee height: 689 km
right ascension of ascending node: 293.7710°
argument of perigee: 74.5100°
revolutions per day: 14.61250302
mean anomaly at epoch: 2.5700°
orbit number at epoch: 45754

The dashed part of the orbit path shows where the satellite is in the earth's shadow,  

DLR